Miscellaneous Local Product
Issued by NWS North Platte, NE

Home | Current Version | Previous Version | Graphics & Text | Print | Product List | Glossary Off
Versions: 1 2 3 4 5 6 7 8 9 10 11 12 13 14 15 16 17 18 19 20 21 22 23 24 25 26 27 28 29 30 31 32 33 34 35 36 37 38 39 40 41 42 43 44 45 46 47 48 49 50

276
AXUS43 KLBF 302310
MISLBF


WESTERN AND NORTH CENTRAL NEBRASKA HOURLY WEATHER ROUNDUP
NATIONAL WEATHER SERVICE NORTH PLATTE NE
600 PM CDT MON MAY 30 2016

NOTE: "FAIR" INDICATES FEW OR NO CLOUDS BELOW 12,000 FEET WITH NO
SIGNIFICANT WEATHER AND/OR OBSTRUCTIONS TO VISIBILITY.

NOTE: STATIONS NOT REPORTING VARIABLES SUCH AS SKY/WEATHER OR
PRESSURE ARE PROVIDED BY RAWS AND APRS NETWORKS AND ARE NOT UNDER
NATIONAL WEATHER SERVICE QUALITY CONTROL.

...OBSERVATIONS IN AND NEAR THE EASTERN PANHANDLE OF NEBRASKA...

CITY           SKY/WX    TMP DP  RH WIND       PRES   REMARKS
PINE RIDGE     CLOUDY    77  45  32 W17G25    29.84S
CHADRON        CLOUDY    78  43  28 NW16G25   29.85F
ALLIANCE       CLOUDY    69  43  38 SW17      29.88F
SIDNEY         CLOUDY    58  50  75 N7        29.96F
CRESCENT LAKE    N/A     68  41  37 SW15G26     N/A
BIG SPRINGS      N/A     81  51  35 CALM        N/A
$$

...OBSERVATIONS IN NORTHERN NEBRASKA AND FAR SOUTHERN SOUTH DAKOTA...

CITY           SKY/WX    TMP DP  RH WIND       PRES   REMARKS
WINNER         FAIR      77  55  46 S13       29.74F
VALENTINE      TSTM      63  53  70 S16       29.80S
THEDFORD       CLOUDY    80  54  39 S14       29.83F
AINSWORTH      CLOUDY    75  55  50 S8        29.81S
O`NEILL        SUNNY     82  57  43 S8        29.81F
ORD            SUNNY     83  54  36 S12G23    29.80F
BROKEN BOW     SUNNY     82  56  40 S16G30    29.83F
BUTTE            N/A     79  59  49 S12G20      N/A
CHAMBERS         N/A     85  57  38 W6          N/A
EWING            N/A     83  61  46 S8G15       N/A
$$

...OBSERVATIONS IN SOUTHWEST NEBRASKA AND FAR NORTHEAST COLORADO...

CITY           SKY/WX    TMP DP  RH WIND       PRES   REMARKS
WRAY           FAIR      81  50  34 S8        29.84F
HOLYOKE        TSTM      61  50  67 NW36G46   29.91R
IMPERIAL       CLOUDY    79  56  45 S9        29.82F
OGALLALA       CLOUDY    65  48  55 W22G35    29.92R
NORTH PLATTE   SUNNY     80  57  45 S13       29.82F
MCCOOK         CLOUDY    80  57  45 S13G18    29.82F
LEXINGTON      SUNNY     81  55  40 S15G23    29.84S
PAXTON           N/A     83  56  39 S12         N/A
STAPLETON        N/A     80  58  47 CALM        N/A
GOTHENBURG       N/A     83  52  33 S9          N/A
CALLAWAY         N/A     80  57  45 S20         N/A
$$

...OBSERVATIONS IN CENTRAL LINCOLN COUNTY AREA...

CITY           SKY/WX    TMP DP  RH WIND       PRES   REMARKS
N.P. AIRPORT   SUNNY     80  57  45 S13       29.82F
N.P. DOWNTOWN    N/A     82  59  45 S3G14       N/A
N.P. SOUTHEAST   N/A     80  57  45 S8          N/A
N.P. HILLCREST   N/A     79  60  52 S8G15       N/A
$$

...SOME OBSERVATIONS FROM AROUND THE REGION...

CITY           SKY/WX    TMP DP  RH WIND       PRES   REMARKS
DENVER         TSTM      60  45  57 E12       30.00R
LARAMIE        CLOUDY    64  31  28 W13G23    30.06F
CHEYENNE       CLOUDY    58  50  75 SW8       30.02F
SCOTTSBLUFF    CLOUDY    71  44  37 SW9       29.89F
RAPID CITY     MOSUNNY   70  47  43 N25G35    29.85S
BISMARCK       CLOUDY    65  55  70 NE9G22    29.78F
PIERRE         CLOUDY    81  58  45 S15G24    29.68F
SIOUX FALLS    MOSUNNY   81  55  40 S13       29.80F
OMAHA          TSTM      76  61  59 S10       29.88R
GRAND ISLAND   SUNNY     83  54  36 S18G25    29.84F
KANSAS CITY    CLOUDY    76  65  68 S15       29.95F
WICHITA        MOSUNNY   81  61  50 S13       29.91F
OKLAHOMA CITY  MOSUNNY   81  65  58 SE5       29.91F
DALLAS         MOSUNNY   83  62  49 S5        29.90F
AMARILLO       SUNNY     81  60  48 S14       29.94F
DODGE CITY     SUNNY     81  54  39 S16G26    29.88F
HAYS           SUNNY     82  55  39 S18G24    29.86F
GOODLAND       CLOUDY    81  53  37 S18       29.84F
$$




USA.gov is the U.S. government's official web portal to all federal, state and local government web resources and services.